Location: Allie Creek
(37.5926°N, 89.8526°W)
Time: 04:23:53
(UTC+00:00)

Meteor 1-27 Rocket - Pass Details

Date: 14 April 2024
Orbit: 829 x 909 km, 81.3° (Epoch: 27 May)

Event Time Altitude Azimuth Distance (km) Brightness Sun altitude
Exits shadow 09:47:08 30° 266° (W) 1,539 4.5 -18.9°
Maximum altitude 09:48:09 32° 286° (WNW) 1,479 4.6 -18.8°
Drops below altitude 10° 09:53:14 10° 348° (NNW) 2,521 6.4 -17.9°
Sets 09:55:56 0° 359° (N) 3,449 7.2 -17.4°
